When you browse on this site, cookies collect data to enhance your experience and personalize the content and advertising you see.
Visit our Privacy Policy to learn more. By continuing to use the site, you agree to this use of cookies and data.
  • en France
  • Liste des pays
  • À 7 jours
  • Température de l'eau
  • Carte satellitaire
  • Carte météo
  • Widgets météo
  • user-avatar
    Se connecter

    Météo par heure à Kapan

    Ce jour, 16 Février, Samedi

    Heure Température Précipitation Vent Pression Humidité
    00:00 +4°C° 0.5 mm 1 m/s 680 mmHg 91%
    01:00 +4°C° 0.7 mm 1 m/s 680 mmHg 92%
    02:00 +4°C° 0.7 mm 1 m/s 680 mmHg 93%
    03:00 +3°C° 0.7 mm 1 m/s 680 mmHg 94%
    04:00 +3°C° 0.5 mm 1 m/s 680 mmHg 94%
    05:00 +3°C° 0.5 mm 1 m/s 680 mmHg 93%
    06:00 +3°C° 0.5 mm 1 m/s 680 mmHg 93%
    07:00 +3°C° 0.3 mm 1 m/s 681 mmHg 89%
    08:00 +3°C° 0.3 mm 1 m/s 681 mmHg 85%
    09:00 +4°C° 0.3 mm 1 m/s 682 mmHg 80%
    10:00 +5°C° 0.1 mm 1 m/s 682 mmHg 75%
    11:00 +6°C° 0.1 mm 1 m/s 682 mmHg 70%
    12:00 +6°C° 0.1 mm 2 m/s 682 mmHg 64%
    13:00 +6°C° 0 mm 2 m/s 682 mmHg 61%
    14:00 +7°C° 0 mm 2 m/s 682 mmHg 58%
    15:00 +7°C° 0 mm 2 m/s 682 mmHg 55%
    16:00 +6°C° 0 mm 2 m/s 682 mmHg 56%
    17:00 +5°C° 0 mm 2 m/s 682 mmHg 57%
    18:00 +3°C° 0 mm 2 m/s 682 mmHg 58%
    19:00 +3°C° 0 mm 2 m/s 682 mmHg 59%
    20:00 +2°C° 0 mm 2 m/s 682 mmHg 59%
    21:00 +1°C° 0 mm 3 m/s 682 mmHg 60%
    22:00 +1°C° 0 mm 3 m/s 682 mmHg 60%
    23:00 +1°C° 0 mm 3 m/s 682 mmHg 61%

    Demain, 17 Février, Dimanche

    Heure Température Précipitation Vent Pression Humidité
    00:00 0°C° 0 mm 3 m/s 682 mmHg 62%
    01:00 0°C° 0 mm 3 m/s 682 mmHg 63%
    02:00 0°C° 0 mm 3 m/s 682 mmHg 63%
    03:00 0°C° 0 mm 3 m/s 682 mmHg 64%
    04:00 0°C° 0 mm 3 m/s 682 mmHg 64%
    05:00 0°C° 0 mm 3 m/s 682 mmHg 64%
    06:00 0°C° 0 mm 3 m/s 682 mmHg 65%
    07:00 +1°C° 0 mm 3 m/s 683 mmHg 62%
    08:00 +3°C° 0 mm 2 m/s 683 mmHg 59%
    09:00 +4°C° 0 mm 2 m/s 684 mmHg 56%
    10:00 +5°C° 0 mm 2 m/s 684 mmHg 53%
    11:00 +5°C° 0 mm 3 m/s 684 mmHg 51%
    12:00 +7°C° 0 mm 3 m/s 684 mmHg 48%
    13:00 +7°C° 0 mm 3 m/s 683 mmHg 47%
    14:00 +7°C° 0 mm 3 m/s 683 mmHg 46%
    15:00 +7°C° 0 mm 3 m/s 683 mmHg 45%
    16:00 +6°C° 0 mm 2 m/s 683 mmHg 48%
    17:00 +5°C° 0 mm 2 m/s 683 mmHg 50%
    18:00 +3°C° 0 mm 2 m/s 683 mmHg 53%
    19:00 +3°C° 0 mm 2 m/s 683 mmHg 54%
    20:00 +2°C° 0 mm 2 m/s 683 mmHg 56%
    21:00 +2°C° 0 mm 2 m/s 684 mmHg 57%
    22:00 +2°C° 0 mm 2 m/s 684 mmHg 57%
    23:00 +2°C° 0 mm 2 m/s 684 mmHg 57%

    Après-demain, 18 Février, Lundi

    Heure Température Précipitation Vent Pression Humidité
    00:00 +1°C° 0 mm 3 m/s 684 mmHg 57%
    01:00 0°C° 0 mm 3 m/s 683 mmHg 57%
    02:00 0°C° 0 mm 3 m/s 683 mmHg 57%
    03:00 0°C° 0 mm 3 m/s 683 mmHg 57%
    04:00 0°C° 0 mm 3 m/s 683 mmHg 57%
    05:00 0°C° 0 mm 3 m/s 683 mmHg 58%
    06:00 0°C° 0 mm 3 m/s 682 mmHg 58%
    07:00 +1°C° 0 mm 3 m/s 683 mmHg 55%
    08:00 +2°C° 0 mm 3 m/s 683 mmHg 53%
    09:00 +4°C° 0 mm 3 m/s 683 mmHg 50%
    10:00 +5°C° 0 mm 3 m/s 682 mmHg 48%
    11:00 +7°C° 0 mm 3 m/s 682 mmHg 46%
    12:00 +7°C° 0 mm 4 m/s 681 mmHg 43%
    13:00 +7°C° 0 mm 4 m/s 681 mmHg 43%
    14:00 +7°C° 0 mm 4 m/s 680 mmHg 42%
    15:00 +7°C° 0 mm 4 m/s 679 mmHg 42%
    16:00 +6°C° 0 mm 4 m/s 679 mmHg 44%
    17:00 +5°C° 0 mm 3 m/s 679 mmHg 47%
    18:00 +3°C° 0 mm 3 m/s 679 mmHg 50%
    19:00 +3°C° 0 mm 3 m/s 679 mmHg 51%
    20:00 +2°C° 0 mm 3 m/s 679 mmHg 52%
    21:00 +2°C° 0 mm 3 m/s 679 mmHg 54%
    22:00 +1°C° 0 mm 3 m/s 679 mmHg 55%
    23:00 +1°C° 0 mm 3 m/s 679 mmHg 55%

    19 Février, Mardi

    Heure Température Précipitation Vent Pression Humidité
    00:00 +1°C° 0 mm 3 m/s 679 mmHg 56%
    01:00 +1°C° 0 mm 3 m/s 679 mmHg 57%
    02:00 +2°C° 0 mm 2 m/s 679 mmHg 58%
    03:00 +2°C° 0 mm 2 m/s 680 mmHg 59%
    04:00 +1°C° 0 mm 2 m/s 680 mmHg 61%
    05:00 +1°C° 0 mm 2 m/s 680 mmHg 62%
    06:00 -1°C° 0 mm 2 m/s 680 mmHg 64%
    07:00 +1°C° 0 mm 2 m/s 681 mmHg 60%
    08:00 +3°C° 0 mm 2 m/s 681 mmHg 57%
    09:00 +4°C° 0 mm 2 m/s 682 mmHg 54%
    10:00 +5°C° 0 mm 2 m/s 682 mmHg 51%
    11:00 +6°C° 0 mm 2 m/s 683 mmHg 48%
    12:00 +7°C° 0 mm 2 m/s 683 mmHg 45%
    13:00 +6°C° 0 mm 2 m/s 683 mmHg 47%
    14:00 +6°C° 0 mm 2 m/s 683 mmHg 48%
    15:00 +6°C° 0 mm 2 m/s 683 mmHg 49%
    16:00 +5°C° 0.1 mm 2 m/s 684 mmHg 57%
    17:00 +4°C° 0.1 mm 2 m/s 684 mmHg 65%
    18:00 +2°C° 0.1 mm 2 m/s 685 mmHg 73%
    19:00 +3°C° 0 mm 1 m/s 686 mmHg 77%
    20:00 +2°C° 0 mm 1 m/s 686 mmHg 80%
    21:00 +2°C° 0 mm 1 m/s 687 mmHg 84%
    22:00 +2°C° 0 mm 1 m/s 688 mmHg 85%
    23:00 +1°C° 0 mm 1 m/s 688 mmHg 86%

    20 Février, Mercredi

    Heure Température Précipitation Vent Pression Humidité
    00:00 +1°C° 0 mm 1 m/s 689 mmHg 87%
    01:00 +1°C° 0 mm 1 m/s 689 mmHg 86%
    02:00 +1°C° 0 mm 1 m/s 689 mmHg 86%
    03:00 +1°C° 0 mm 1 m/s 689 mmHg 85%
    04:00 0°C° 0 mm 1 m/s 690 mmHg 84%
    05:00 0°C° 0 mm 1 m/s 690 mmHg 83%
    06:00 0°C° 0 mm 1 m/s 690 mmHg 82%
    07:00 +1°C° 0 mm 1 m/s 690 mmHg 77%
    08:00 +2°C° 0 mm 1 m/s 691 mmHg 72%
    09:00 +3°C° 0 mm 1 m/s 691 mmHg 67%
    10:00 +4°C° 0 mm 1 m/s 691 mmHg 61%
    11:00 +4°C° 0 mm 2 m/s 691 mmHg 55%
    12:00 +5°C° 0 mm 2 m/s 691 mmHg 50%
    13:00 +6°C° 0 mm 2 m/s 690 mmHg 48%
    14:00 +6°C° 0 mm 2 m/s 690 mmHg 47%
    15:00 +6°C° 0 mm 2 m/s 689 mmHg 46%
    16:00 +5°C° 0 mm 2 m/s 689 mmHg 52%
    17:00 +5°C° 0 mm 1 m/s 689 mmHg 57%
    18:00 +3°C° 0 mm 1 m/s 689 mmHg 63%
    19:00 +3°C° 0 mm 1 m/s 689 mmHg 63%
    20:00 +3°C° 0 mm 1 m/s 689 mmHg 63%
    21:00 +2°C° 0 mm 1 m/s 689 mmHg 63%
    22:00 +2°C° 0 mm 1 m/s 689 mmHg 59%
    23:00 +2°C° 0 mm 1 m/s 689 mmHg 55%

    21 Février, Jeudi

    Heure Température Précipitation Vent Pression Humidité
    00:00 +2°C° 0 mm 1 m/s 688 mmHg 52%
    01:00 +2°C° 0 mm 1 m/s 688 mmHg 49%
    02:00 +2°C° 0 mm 1 m/s 688 mmHg 47%
    03:00 +2°C° 0 mm 1 m/s 687 mmHg 45%
    04:00 +1°C° 0 mm 2 m/s 687 mmHg 45%
    05:00 +1°C° 0 mm 2 m/s 687 mmHg 44%
    06:00 -1°C° 0 mm 2 m/s 687 mmHg 44%
    07:00 +3°C° 0 mm 1 m/s 687 mmHg 42%
    08:00 +4°C° 0 mm 1 m/s 688 mmHg 41%
    09:00 +6°C° 0 mm 1 m/s 688 mmHg 39%
    10:00 +7°C° 0 mm 1 m/s 687 mmHg 38%
    11:00 +7°C° 0 mm 2 m/s 687 mmHg 36%
    12:00 +8°C° 0 mm 2 m/s 687 mmHg 34%
    13:00 +8°C° 0 mm 2 m/s 686 mmHg 35%
    14:00 +9°C° 0 mm 2 m/s 686 mmHg 36%
    15:00 +9°C° 0 mm 2 m/s 685 mmHg 37%
    16:00 +7°C° 0 mm 2 m/s 685 mmHg 43%
    17:00 +6°C° 0 mm 1 m/s 685 mmHg 50%
    18:00 +5°C° 0 mm 1 m/s 685 mmHg 56%
    19:00 +4°C° 0 mm 1 m/s 685 mmHg 54%
    20:00 +4°C° 0 mm 1 m/s 685 mmHg 51%
    21:00 +4°C° 0 mm 1 m/s 685 mmHg 49%
    22:00 +3°C° 0 mm 1 m/s 685 mmHg 44%
    23:00 +2°C° 0 mm 2 m/s 685 mmHg 40%
    Voir plus